Location: ???
(60.6398°N, 46.9067°E)
Time: 19:22:47
(UTC+00:00)

Cosmos 2026 Rocket - Pass Details

Date: 08 December 2019
Orbit: 940 x 1000 km, 82.9° (Epoch: 17 January)

Event Time Altitude Azimuth Distance (km) Brightness Sun altitude
Rises 15:25:29 0° 183° (S) 3,600 7.1 -24.7°
Reaches altitude 10° 15:27:58 10° 182° (S) 2,657 6.3 -25.0°
Maximum altitude 15:34:00 75° 99° (E) 981 3.8 -25.7°
Enters shadow 15:36:40 35° 22° (NNE) 1,473 4.7 -26.1°
